Time,TemperatureF,DewpointF,PressureIn,WindDirection,WindDirectionDegrees,WindSpeedMPH,WindSpeedGustMPH,Humidity,HourlyPrecipIn,Conditions,Clouds,dailyrainin,SoftwareType,DateUTC
2013-09-14 00:01:00,54.4,51.2,29.78,NNW,338,2.2,4.5,89,0.00,,,0.00,WUHU216HW,2013-09-14 04:01:00,
2013-09-14 00:02:00,54.4,51.2,29.78,WSW,248,2.0,4.5,89,0.00,,,0.00,WUHU216HW,2013-09-14 04:02:00,
2013-09-14 00:03:00,54.4,51.2,29.78,WSW,248,1.8,4.5,89,0.00,,,0.00,WUHU216HW,2013-09-14 04:03:00,
2013-09-14 00:08:00,54.4,51.2,29.78,WNW,293,1.1,4.5,89,0.00,,,0.00,WUHU216HW,2013-09-14 04:08:00,
2013-09-14 00:13:00,54.4,51.2,29.79,NNE,23,0.9,2.5,89,0.00,,,0.00,WUHU216HW,2013-09-14 04:13:00,
2013-09-14 00:18:00,54.4,51.2,29.79,NW,315,0.0,1.8,89,0.00,,,0.00,WUHU216HW,2013-09-14 04:18:00,
2013-09-14 00:23:00,54.4,51.2,29.78,North,0,0.4,2.7,89,0.00,,,0.00,WUHU216HW,2013-09-14 04:23:00,
2013-09-14 00:28:00,54.2,51.0,29.78,NNW,338,0.0,2.7,89,0.00,,,0.00,WUHU216HW,2013-09-14 04:28:00,
2013-09-14 00:33:00,54.2,51.0,29.79,NNW,338,0.0,0.4,89,0.00,,,0.00,WUHU216HW,2013-09-14 04:33:00,
2013-09-14 00:38:00,54.2,51.0,29.79,NE,45,0.4,0.9,89,0.00,,,0.00,WUHU216HW,2013-09-14 04:38:00,
2013-09-14 00:43:00,54.0,50.9,29.78,NNW,338,0.9,1.3,89,0.00,,,0.00,WUHU216HW,2013-09-14 04:43:00,
2013-09-14 00:49:00,54.0,50.9,29.78,North,0,0.0,1.3,89,0.00,,,0.00,WUHU216HW,2013-09-14 04:49:00,
2013-09-14 00:54:00,53.8,50.7,29.78,NNW,338,2.7,4.5,89,0.00,,,0.00,WUHU216HW,2013-09-14 04:54:00,
2013-09-14 01:00:00,53.8,50.7,29.78,NNE,23,0.9,4.5,89,0.00,,,0.00,WUHU216HW,2013-09-14 05:00:00,
2013-09-14 01:06:00,53.6,50.5,29.78,West,270,1.1,2.0,89,0.00,,,0.00,WUHU216HW,2013-09-14 05:06:00,
2013-09-14 01:12:00,53.6,50.5,29.79,WSW,248,0.0,1.8,89,0.00,,,0.00,WUHU216HW,2013-09-14 05:12:00,
2013-09-14 01:17:00,53.6,50.5,29.79,West,270,0.7,3.6,89,0.00,,,0.00,WUHU216HW,2013-09-14 05:17:00,
2013-09-14 01:22:00,53.5,50.3,29.79,NNW,338,0.0,3.6,89,0.00,,,0.00,WUHU216HW,2013-09-14 05:22:00,
2013-09-14 01:27:00,53.5,50.3,29.79,North,0,1.8,2.2,89,0.00,,,0.00,WUHU216HW,2013-09-14 05:27:00,
2013-09-14 01:32:00,53.5,50.3,29.79,NNE,23,1.1,2.2,89,0.00,,,0.00,WUHU216HW,2013-09-14 05:32:00,
2013-09-14 01:37:00,53.3,50.1,29.80,ENE,68,0.4,2.2,89,0.00,,,0.00,WUHU216HW,2013-09-14 05:37:00,
2013-09-14 01:42:00,53.3,50.1,29.80,WNW,293,1.1,2.5,89,0.00,,,0.00,WUHU216HW,2013-09-14 05:42:00,
2013-09-14 01:47:00,53.1,50.0,29.80,NNW,338,0.4,2.5,89,0.00,,,0.00,WUHU216HW,2013-09-14 05:47:00,
2013-09-14 01:52:00,52.9,49.8,29.80,NW,315,0.0,1.1,89,0.01,,,0.01,WUHU216HW,2013-09-14 05:52:00,
2013-09-14 01:57:00,52.9,50.0,29.80,NNE,23,0.7,0.7,90,0.01,,,0.01,WUHU216HW,2013-09-14 05:57:00,
2013-09-14 02:02:00,52.7,49.9,29.80,NNE,23,0.0,0.9,90,0.01,,,0.01,WUHU216HW,2013-09-14 06:02:00,
2013-09-14 02:07:00,52.7,49.9,29.80,NNE,23,0.0,0.9,90,0.01,,,0.01,WUHU216HW,2013-09-14 06:07:00,
2013-09-14 02:12:00,52.7,49.9,29.80,NNE,23,0.0,0.2,90,0.02,,,0.02,WUHU216HW,2013-09-14 06:12:00,
2013-09-14 02:17:00,52.7,49.9,29.80,SW,225,0.7,1.1,90,0.02,,,0.02,WUHU216HW,2013-09-14 06:17:00,
2013-09-14 02:22:00,52.7,50.1,29.80,WSW,248,0.0,1.1,91,0.02,,,0.02,WUHU216HW,2013-09-14 06:22:00,
2013-09-14 02:27:00,52.7,50.1,29.80,WSW,248,0.0,0.9,91,0.03,,,0.03,WUHU216HW,2013-09-14 06:27:00,
2013-09-14 02:32:00,52.7,50.1,29.80,WSW,248,0.0,0.0,91,0.03,,,0.03,WUHU216HW,2013-09-14 06:32:00,
2013-09-14 02:37:00,52.7,50.1,29.81,WSW,248,0.0,0.0,91,0.03,,,0.03,WUHU216HW,2013-09-14 06:37:00,
2013-09-14 02:42:00,52.7,50.1,29.81,WSW,248,0.0,0.0,91,0.04,,,0.04,WUHU216HW,2013-09-14 06:42:00,
2013-09-14 02:47:00,52.6,50.0,29.81,WSW,248,0.0,0.9,91,0.04,,,0.04,WUHU216HW,2013-09-14 06:47:00,
2013-09-14 02:52:00,52.6,50.0,29.81,WSW,248,0.0,0.9,91,0.04,,,0.05,WUHU216HW,2013-09-14 06:52:00,
2013-09-14 02:57:00,52.4,49.8,29.81,WNW,293,1.1,1.8,91,0.04,,,0.05,WUHU216HW,2013-09-14 06:57:00,
2013-09-14 03:02:00,52.2,49.6,29.81,West,270,0.7,1.8,91,0.04,,,0.05,WUHU216HW,2013-09-14 07:02:00,
2013-09-14 03:07:00,52.2,49.6,29.81,West,270,0.0,1.8,91,0.05,,,0.06,WUHU216HW,2013-09-14 07:07:00,
2013-09-14 03:12:00,52.2,49.6,29.81,West,270,0.0,0.9,91,0.04,,,0.06,WUHU216HW,2013-09-14 07:12:00,
2013-09-14 03:17:00,52.2,49.6,29.81,West,270,0.0,0.4,91,0.04,,,0.06,WUHU216HW,2013-09-14 07:17:00,
2013-09-14 03:22:00,52.0,49.4,29.81,NNE,23,0.7,0.9,91,0.03,,,0.06,WUHU216HW,2013-09-14 07:22:00,
2013-09-14 03:27:00,52.0,49.4,29.81,NW,315,1.1,2.0,91,0.03,,,0.06,WUHU216HW,2013-09-14 07:27:00,
2013-09-14 03:32:00,52.0,49.4,29.81,North,0,0.2,2.9,91,0.03,,,0.06,WUHU216HW,2013-09-14 07:32:00,
2013-09-14 03:37:00,52.0,49.4,29.81,NE,45,0.9,2.9,91,0.02,,,0.06,WUHU216HW,2013-09-14 07:37:00,
2013-09-14 03:42:00,52.0,49.4,29.81,NE,45,1.3,2.2,91,0.02,,,0.06,WUHU216HW,2013-09-14 07:42:00,
2013-09-14 03:47:00,51.8,49.2,29.81,NW,315,0.0,2.2,91,0.02,,,0.06,WUHU216HW,2013-09-14 07:47:00,
2013-09-14 03:52:00,51.8,49.2,29.81,NW,315,0.0,1.6,91,0.01,,,0.06,WUHU216HW,2013-09-14 07:52:00,
2013-09-14 03:57:00,51.8,49.2,29.82,NNW,338,0.0,0.2,91,0.01,,,0.06,WUHU216HW,2013-09-14 07:57:00,
2013-09-14 04:02:00,51.8,49.2,29.81,NNW,338,0.0,0.2,91,0.01,,,0.06,WUHU216HW,2013-09-14 08:02:00,
2013-09-14 04:07:00,51.8,49.2,29.82,NNW,338,0.0,0.0,91,0.00,,,0.06,WUHU216HW,2013-09-14 08:07:00,
2013-09-14 04:12:00,51.8,49.0,29.82,NNW,338,0.0,0.0,90,0.00,,,0.06,WUHU216HW,2013-09-14 08:12:00,
2013-09-14 04:17:00,51.8,49.0,29.82,NNW,338,0.0,0.0,90,0.00,,,0.06,WUHU216HW,2013-09-14 08:17:00,
2013-09-14 04:22:00,51.8,49.0,29.82,North,0,0.0,0.0,90,0.00,,,0.06,WUHU216HW,2013-09-14 08:22:00,
2013-09-14 04:27:00,51.7,48.8,29.82,NNE,23,0.7,1.1,90,0.00,,,0.06,WUHU216HW,2013-09-14 08:27:00,
2013-09-14 04:32:00,51.7,48.8,29.82,NNE,23,0.2,1.1,90,0.00,,,0.06,WUHU216HW,2013-09-14 08:32:00,
2013-09-14 04:37:00,51.7,49.1,29.82,ENE,68,0.9,1.1,91,0.00,,,0.06,WUHU216HW,2013-09-14 08:37:00,
2013-09-14 04:42:00,51.7,49.1,29.82,East,90,0.0,0.9,91,0.00,,,0.06,WUHU216HW,2013-09-14 08:42:00,
2013-09-14 04:47:00,51.7,49.1,29.83,East,90,0.0,0.9,91,0.01,,,0.07,WUHU216HW,2013-09-14 08:47:00,
2013-09-14 04:52:00,51.7,49.1,29.83,ESE,113,0.0,0.4,91,0.01,,,0.07,WUHU216HW,2013-09-14 08:52:00,
2013-09-14 04:57:00,51.8,49.2,29.83,SE,135,0.7,0.9,91,0.01,,,0.07,WUHU216HW,2013-09-14 08:57:00,
2013-09-14 05:02:00,51.8,49.2,29.83,SW,225,0.4,1.1,91,0.01,,,0.07,WUHU216HW,2013-09-14 09:02:00,
2013-09-14 05:07:00,51.8,49.5,29.83,NNE,23,0.0,1.1,92,0.01,,,0.07,WUHU216HW,2013-09-14 09:07:00,
2013-09-14 05:12:00,51.7,49.1,29.83,NNW,338,0.0,0.9,91,0.01,,,0.07,WUHU216HW,2013-09-14 09:12:00,
2013-09-14 05:17:00,51.8,49.2,29.83,ESE,113,0.4,0.4,91,0.01,,,0.07,WUHU216HW,2013-09-14 09:17:00,
2013-09-14 05:22:00,51.8,49.2,29.83,SSE,158,0.0,0.7,91,0.01,,,0.07,WUHU216HW,2013-09-14 09:22:00,
2013-09-14 05:27:00,51.8,49.2,29.83,SSE,158,0.0,0.7,91,0.02,,,0.08,WUHU216HW,2013-09-14 09:27:00,
2013-09-14 05:32:00,51.7,49.1,29.83,SSE,158,0.0,0.0,91,0.02,,,0.08,WUHU216HW,2013-09-14 09:32:00,
2013-09-14 05:37:00,51.7,49.1,29.84,North,0,0.2,0.9,91,0.02,,,0.08,WUHU216HW,2013-09-14 09:37:00,
2013-09-14 05:42:00,51.7,49.1,29.84,North,0,0.9,0.9,91,0.03,,,0.09,WUHU216HW,2013-09-14 09:42:00,
2013-09-14 05:47:00,51.5,48.9,29.84,NE,45,0.9,1.1,91,0.02,,,0.09,WUHU216HW,2013-09-14 09:47:00,
2013-09-14 05:52:00,51.5,48.9,29.84,East,90,0.9,1.1,91,0.03,,,0.10,WUHU216HW,2013-09-14 09:52:00,
2013-09-14 05:57:00,51.3,48.7,29.84,East,90,0.9,1.3,91,0.03,,,0.10,WUHU216HW,2013-09-14 09:57:00,
2013-09-14 06:02:00,51.3,48.7,29.84,NNE,23,0.9,1.3,91,0.04,,,0.11,WUHU216HW,2013-09-14 10:02:00,
2013-09-14 06:07:00,51.3,48.7,29.84,East,90,1.3,2.0,91,0.04,,,0.11,WUHU216HW,2013-09-14 10:07:00,
2013-09-14 06:12:00,51.1,48.5,29.84,ENE,68,1.3,2.2,91,0.04,,,0.11,WUHU216HW,2013-09-14 10:12:00,
2013-09-14 06:17:00,51.1,48.5,29.84,NE,45,1.1,2.2,91,0.04,,,0.11,WUHU216HW,2013-09-14 10:17:00,
2013-09-14 06:22:00,51.1,48.5,29.85,ESE,113,1.3,1.8,91,0.05,,,0.12,WUHU216HW,2013-09-14 10:22:00,
2013-09-14 06:27:00,51.1,48.5,29.85,East,90,1.1,2.7,91,0.05,,,0.13,WUHU216HW,2013-09-14 10:27:00,
2013-09-14 06:32:00,51.1,48.5,29.85,ENE,68,1.1,2.7,91,0.06,,,0.14,WUHU216HW,2013-09-14 10:32:00,
2013-09-14 06:37:00,50.9,48.3,29.85,NNE,23,1.3,2.5,91,0.06,,,0.15,WUHU216HW,2013-09-14 10:37:00,
2013-09-14 06:42:00,50.9,48.3,29.85,ENE,68,2.0,2.5,91,0.07,,,0.16,WUHU216HW,2013-09-14 10:42:00,
2013-09-14 06:47:00,50.8,48.2,29.85,NE,45,1.6,2.5,91,0.07,,,0.16,WUHU216HW,2013-09-14 10:47:00,
2013-09-14 06:52:00,50.8,48.4,29.86,ENE,68,1.1,2.5,92,0.07,,,0.17,WUHU216HW,2013-09-14 10:52:00,
2013-09-14 06:57:00,50.8,48.4,29.86,East,90,1.1,2.2,92,0.06,,,0.17,WUHU216HW,2013-09-14 10:57:00,
2013-09-14 07:02:00,50.8,48.2,29.86,ESE,113,0.4,2.2,91,0.06,,,0.17,WUHU216HW,2013-09-14 11:02:00,
2013-09-14 07:08:00,50.8,48.4,29.86,ENE,68,0.4,2.2,92,0.07,,,0.17,WUHU216HW,2013-09-14 11:08:00,
2013-09-14 07:13:00,51.1,48.5,29.87,ENE,68,0.0,1.1,91,0.07,,,0.18,WUHU216HW,2013-09-14 11:13:00,
2013-09-14 07:21:00,51.1,48.5,29.87,East,90,1.3,1.3,91,0.06,,,0.18,WUHU216HW,2013-09-14 11:21:00,
2013-09-14 07:26:00,51.3,48.7,29.87,East,90,0.4,2.2,91,0.05,,,0.18,WUHU216HW,2013-09-14 11:26:00,
2013-09-14 07:32:00,51.5,48.9,29.87,ENE,68,2.2,2.2,91,0.04,,,0.18,WUHU216HW,2013-09-14 11:32:00,
2013-09-14 07:37:00,51.5,48.9,29.87,ENE,68,1.3,2.5,91,0.04,,,0.19,WUHU216HW,2013-09-14 11:37:00,
2013-09-14 07:42:00,51.5,48.9,29.87,ENE,68,1.8,2.7,91,0.03,,,0.19,WUHU216HW,2013-09-14 11:42:00,
2013-09-14 07:47:00,51.5,48.9,29.87,NE,45,2.2,2.9,91,0.03,,,0.19,WUHU216HW,2013-09-14 11:47:00,
2013-09-14 07:52:00,51.8,49.2,29.88,North,0,1.3,2.9,91,0.02,,,0.19,WUHU216HW,2013-09-14 11:52:00,
2013-09-14 07:57:00,52.0,49.7,29.88,NNE,23,1.1,3.1,92,0.02,,,0.19,WUHU216HW,2013-09-14 11:57:00,
2013-09-14 08:02:00,52.2,49.9,29.88,NE,45,3.6,4.3,92,0.04,,,0.21,WUHU216HW,2013-09-14 12:02:00,
2013-09-14 08:07:00,52.2,49.9,29.88,ENE,68,2.0,4.3,92,0.04,,,0.22,WUHU216HW,2013-09-14 12:07:00,
2013-09-14 08:12:00,52.4,50.0,29.89,North,0,2.9,3.6,92,0.05,,,0.23,WUHU216HW,2013-09-14 12:12:00,
2013-09-14 08:17:00,52.6,50.2,29.89,North,0,1.6,3.4,92,0.06,,,0.24,WUHU216HW,2013-09-14 12:17:00,
2013-09-14 08:22:00,52.7,50.4,29.89,NE,45,2.5,3.4,92,0.07,,,0.25,WUHU216HW,2013-09-14 12:22:00,
2013-09-14 08:27:00,52.7,50.1,29.89,ENE,68,0.7,2.7,91,0.10,,,0.28,WUHU216HW,2013-09-14 12:27:00,
2013-09-14 08:32:00,52.6,49.7,29.89,NE,45,2.5,2.7,90,0.11,,,0.30,WUHU216HW,2013-09-14 12:32:00,
2013-09-14 08:37:00,52.6,49.7,29.89,NE,45,1.8,2.5,90,0.12,,,0.31,WUHU216HW,2013-09-14 12:37:00,
2013-09-14 08:43:00,52.7,50.1,29.90,East,90,2.0,2.5,91,0.13,,,0.32,WUHU216HW,2013-09-14 12:43:00,
2013-09-14 08:48:00,52.7,49.9,29.90,East,90,0.4,2.0,90,0.14,,,0.33,WUHU216HW,2013-09-14 12:48:00,
2013-09-14 08:53:00,52.9,50.0,29.90,NNE,23,1.1,1.3,90,0.14,,,0.33,WUHU216HW,2013-09-14 12:53:00,
2013-09-14 08:58:00,52.7,49.9,29.90,ENE,68,0.0,1.1,90,0.14,,,0.34,WUHU216HW,2013-09-14 12:58:00,
2013-09-14 09:01:00,52.9,50.0,29.90,NNE,23,1.1,1.1,90,0.13,,,0.34,WUHU216HW,2013-09-14 13:01:00,
2013-09-14 09:12:00,52.6,49.4,29.90,WNW,293,0.4,3.8,89,0.12,,,0.36,WUHU216HW,2013-09-14 13:12:00,
2013-09-14 09:17:00,52.6,49.4,29.90,WNW,293,0.9,1.8,89,0.11,,,0.36,WUHU216HW,2013-09-14 13:17:00,
2013-09-14 09:22:00,53.1,50.0,29.90,WNW,293,0.2,1.8,89,0.10,,,0.36,WUHU216HW,2013-09-14 13:22:00,
2013-09-14 09:27:00,53.6,50.5,29.90,NE,45,2.0,2.0,89,0.08,,,0.36,WUHU216HW,2013-09-14 13:27:00,
2013-09-14 09:33:00,53.8,50.7,29.90,NNW,338,1.3,3.4,89,0.06,,,0.38,WUHU216HW,2013-09-14 13:33:00,
2013-09-14 09:38:00,54.0,50.9,29.90,NW,315,1.1,3.4,89,0.06,,,0.38,WUHU216HW,2013-09-14 13:38:00,
2013-09-14 09:44:00,53.6,50.1,29.90,North,0,0.4,2.7,88,0.05,,,0.38,WUHU216HW,2013-09-14 13:44:00,
2013-09-14 09:51:00,53.6,49.9,29.90,WSW,248,2.0,4.5,87,0.04,,,0.38,WUHU216HW,2013-09-14 13:51:00,
2013-09-14 09:56:00,53.3,49.5,29.91,West,270,3.4,4.5,87,0.03,,,0.38,WUHU216HW,2013-09-14 13:56:00,
2013-09-14 10:02:00,53.5,50.0,29.91,West,270,2.5,3.8,88,0.03,,,0.38,WUHU216HW,2013-09-14 14:02:00,
2013-09-14 10:07:00,53.6,50.1,29.91,West,270,3.4,4.9,88,0.02,,,0.38,WUHU216HW,2013-09-14 14:07:00,
2013-09-14 10:12:00,53.8,50.3,29.91,WNW,293,1.1,4.9,88,0.01,,,0.38,WUHU216HW,2013-09-14 14:12:00,
2013-09-14 10:18:00,54.0,50.5,29.91,West,270,1.1,3.4,88,0.01,,,0.38,WUHU216HW,2013-09-14 14:18:00,
2013-09-14 10:23:00,54.5,51.0,29.91,WNW,293,0.0,2.5,88,0.01,,,0.38,WUHU216HW,2013-09-14 14:23:00,
2013-09-14 10:28:00,55.3,51.4,29.91,North,0,1.3,3.4,87,0.00,,,0.38,WUHU216HW,2013-09-14 14:28:00,
2013-09-14 10:33:00,55.6,51.5,29.91,North,0,1.8,3.4,86,0.00,,,0.38,WUHU216HW,2013-09-14 14:33:00,
2013-09-14 10:38:00,55.8,50.9,29.91,West,270,0.4,3.4,84,0.00,,,0.38,WUHU216HW,2013-09-14 14:38:00,
2013-09-14 10:44:00,55.8,50.9,29.90,NW,315,1.8,3.4,84,0.00,,,0.38,WUHU216HW,2013-09-14 14:44:00,
2013-09-14 10:49:00,55.8,50.9,29.90,WNW,293,0.4,2.7,84,0.00,,,0.38,WUHU216HW,2013-09-14 14:49:00,
2013-09-14 10:54:00,55.8,51.3,29.90,NE,45,0.7,2.5,85,0.00,,,0.38,WUHU216HW,2013-09-14 14:54:00,
2013-09-14 10:59:00,56.3,51.8,29.90,WNW,293,0.4,2.0,85,0.00,,,0.38,WUHU216HW,2013-09-14 14:59:00,
2013-09-14 11:04:00,56.3,50.9,29.90,SW,225,2.0,2.2,82,0.00,,,0.38,WUHU216HW,2013-09-14 15:04:00,
2013-09-14 11:09:00,56.2,51.0,29.90,NW,315,1.8,2.5,83,0.00,,,0.38,WUHU216HW,2013-09-14 15:09:00,
2013-09-14 11:14:00,56.5,51.7,29.90,NE,45,1.8,4.0,84,0.00,,,0.38,WUHU216HW,2013-09-14 15:14:00,
2013-09-14 11:19:00,56.3,50.9,29.90,West,270,2.9,4.0,82,0.00,,,0.38,WUHU216HW,2013-09-14 15:19:00,
2013-09-14 11:24:00,55.6,49.9,29.91,NNE,23,2.0,3.4,81,0.00,,,0.38,WUHU216HW,2013-09-14 15:24:00,
2013-09-14 11:31:00,55.4,50.0,29.91,NNW,338,1.8,4.0,82,0.00,,,0.38,WUHU216HW,2013-09-14 15:31:00,
2013-09-14 11:36:00,55.6,50.1,29.91,SW,225,0.4,4.0,82,0.00,,,0.38,WUHU216HW,2013-09-14 15:36:00,
2013-09-14 11:41:00,55.8,50.3,29.91,North,0,2.0,3.1,82,0.00,,,0.38,WUHU216HW,2013-09-14 15:41:00,
2013-09-14 11:46:00,56.0,50.2,29.91,West,270,2.5,3.6,81,0.00,,,0.38,WUHU216HW,2013-09-14 15:46:00,
2013-09-14 11:53:00,56.5,50.8,29.91,North,0,0.4,3.6,81,0.00,,,0.38,WUHU216HW,2013-09-14 15:53:00,
2013-09-14 11:58:00,56.5,50.8,29.92,NW,315,3.4,4.0,81,0.00,,,0.38,WUHU216HW,2013-09-14 15:58:00,
2013-09-14 12:04:00,56.5,50.8,29.92,West,270,4.0,4.9,81,0.00,,,0.38,WUHU216HW,2013-09-14 16:04:00,
2013-09-14 12:09:00,56.5,51.0,29.92,NW,315,3.6,4.9,82,0.00,,,0.38,WUHU216HW,2013-09-14 16:09:00,
2013-09-14 12:14:00,56.7,51.2,29.92,WSW,248,1.1,4.5,82,0.00,,,0.38,WUHU216HW,2013-09-14 16:14:00,
2013-09-14 12:19:00,57.1,51.6,29.92,WSW,248,1.8,3.6,82,0.00,,,0.38,WUHU216HW,2013-09-14 16:19:00,
2013-09-14 12:25:00,57.1,51.3,29.92,West,270,1.1,3.1,81,0.00,,,0.38,WUHU216HW,2013-09-14 16:25:00,
2013-09-14 12:30:00,56.5,50.8,29.92,North,0,2.9,3.4,81,0.00,,,0.38,WUHU216HW,2013-09-14 16:30:00,
2013-09-14 12:35:00,56.2,50.4,29.92,WNW,293,0.7,4.3,81,0.00,,,0.38,WUHU216HW,2013-09-14 16:35:00,
2013-09-14 12:40:00,55.8,50.1,29.92,NW,315,1.3,4.3,81,0.00,,,0.38,WUHU216HW,2013-09-14 16:40:00,
2013-09-14 12:47:00,56.0,50.2,29.92,NNE,23,1.8,4.0,81,0.00,,,0.38,WUHU216HW,2013-09-14 16:47:00,
2013-09-14 12:53:00,56.5,50.8,29.92,NNW,338,0.7,4.0,81,0.00,,,0.38,WUHU216HW,2013-09-14 16:53:00,
2013-09-14 12:58:00,56.7,50.6,29.92,NW,315,1.6,4.5,80,0.00,,,0.38,WUHU216HW,2013-09-14 16:58:00,
2013-09-14 13:03:00,56.5,50.8,29.92,WNW,293,1.3,4.5,81,0.00,,,0.38,WUHU216HW,2013-09-14 17:03:00,
2013-09-14 13:08:00,56.7,51.0,29.92,NW,315,2.2,4.5,81,0.00,,,0.38,WUHU216HW,2013-09-14 17:08:00,
2013-09-14 13:13:00,56.5,50.4,29.92,NNW,338,1.8,3.4,80,0.00,,,0.38,WUHU216HW,2013-09-14 17:13:00,
2013-09-14 13:18:00,56.9,51.1,29.92,NNE,23,2.5,3.8,81,0.00,,,0.38,WUHU216HW,2013-09-14 17:18:00,
2013-09-14 13:23:00,57.1,50.6,29.92,NW,315,0.4,3.8,79,0.00,,,0.38,WUHU216HW,2013-09-14 17:23:00,
2013-09-14 13:29:00,57.6,51.1,29.92,NE,45,1.8,2.9,79,0.00,,,0.38,WUHU216HW,2013-09-14 17:29:00,
2013-09-14 13:34:00,57.8,51.3,29.92,NNE,23,1.8,2.7,79,0.00,,,0.38,WUHU216HW,2013-09-14 17:34:00,
2013-09-14 13:39:00,58.3,51.8,29.92,NNE,23,1.8,2.7,79,0.00,,,0.38,WUHU216HW,2013-09-14 17:39:00,
2013-09-14 13:44:00,58.3,51.5,29.92,North,0,3.6,6.9,78,0.00,,,0.38,WUHU216HW,2013-09-14 17:44:00,
2013-09-14 13:49:00,58.3,51.1,29.92,NW,315,2.7,6.9,77,0.00,,,0.38,WUHU216HW,2013-09-14 17:49:00,
2013-09-14 13:54:00,58.7,50.4,29.92,NNE,23,3.8,6.3,74,0.00,,,0.38,WUHU216HW,2013-09-14 17:54:00,
2013-09-14 13:59:00,59.0,51.1,29.92,NNE,23,1.8,5.6,75,0.00,,,0.38,WUHU216HW,2013-09-14 17:59:00,
2013-09-14 14:04:00,59.0,50.8,29.92,West,270,1.1,5.6,74,0.00,,,0.38,WUHU216HW,2013-09-14 18:04:00,
2013-09-14 14:09:00,58.9,50.6,29.91,WNW,293,3.1,5.1,74,0.00,,,0.38,WUHU216HW,2013-09-14 18:09:00,
2013-09-14 14:14:00,59.0,51.1,29.91,NNE,23,1.6,5.1,75,0.00,,,0.38,WUHU216HW,2013-09-14 18:14:00,
2013-09-14 14:20:00,59.0,51.1,29.91,West,270,2.7,5.1,75,0.00,,,0.38,WUHU216HW,2013-09-14 18:20:00,
2013-09-14 14:25:00,59.0,51.5,29.91,SW,225,0.0,4.7,76,0.00,,,0.38,WUHU216HW,2013-09-14 18:25:00,
2013-09-14 14:30:00,59.2,51.7,29.91,West,270,0.7,3.1,76,0.00,,,0.38,WUHU216HW,2013-09-14 18:30:00,
2013-09-14 14:35:00,59.2,51.3,29.91,NNW,338,1.1,2.0,75,0.00,,,0.38,WUHU216HW,2013-09-14 18:35:00,
2013-09-14 14:40:00,58.3,50.4,29.91,West,270,2.5,3.4,75,0.00,,,0.38,WUHU216HW,2013-09-14 18:40:00,
2013-09-14 14:45:00,58.5,50.9,29.91,WSW,248,1.1,3.4,76,0.00,,,0.38,WUHU216HW,2013-09-14 18:45:00,
2013-09-14 14:50:00,58.5,50.9,29.91,West,270,2.0,3.4,76,0.00,,,0.38,WUHU216HW,2013-09-14 18:50:00,
2013-09-14 14:55:00,58.3,50.8,29.91,WSW,248,4.0,4.5,76,0.00,,,0.38,WUHU216HW,2013-09-14 18:55:00,
2013-09-14 15:00:00,58.1,50.6,29.91,North,0,5.1,5.1,76,0.00,,,0.38,WUHU216HW,2013-09-14 19:00:00,
2013-09-14 15:05:00,58.1,50.6,29.91,South,180,0.4,5.1,76,0.00,,,0.38,WUHU216HW,2013-09-14 19:05:00,
2013-09-14 15:11:00,58.3,50.4,29.91,North,0,1.8,5.1,75,0.00,,,0.38,WUHU216HW,2013-09-14 19:11:00,
2013-09-14 15:16:00,57.8,50.2,29.91,South,180,1.3,5.8,76,0.00,,,0.38,WUHU216HW,2013-09-14 19:16:00,
2013-09-14 15:22:00,57.6,50.0,29.92,NW,315,2.2,5.8,76,0.00,,,0.38,WUHU216HW,2013-09-14 19:22:00,
2013-09-14 15:27:00,57.6,50.0,29.92,NNW,338,1.8,4.5,76,0.00,,,0.38,WUHU216HW,2013-09-14 19:27:00,
2013-09-14 15:32:00,57.6,50.4,29.92,WSW,248,1.6,6.5,77,0.00,,,0.38,WUHU216HW,2013-09-14 19:32:00,
2013-09-14 15:37:00,57.4,50.2,29.92,NW,315,2.7,6.5,77,0.00,,,0.38,WUHU216HW,2013-09-14 19:37:00,
2013-09-14 15:42:00,57.2,50.0,29.92,NNW,338,0.4,5.8,77,0.00,,,0.38,WUHU216HW,2013-09-14 19:42:00,
2013-09-14 15:49:00,56.9,49.7,29.92,WSW,248,3.4,3.4,77,0.00,,,0.38,WUHU216HW,2013-09-14 19:49:00,
2013-09-14 15:56:00,56.5,49.0,29.93,WNW,293,2.7,5.6,76,0.00,,,0.38,WUHU216HW,2013-09-14 19:56:00,
2013-09-14 16:01:00,56.3,49.1,29.93,North,0,4.7,5.6,77,0.00,,,0.38,WUHU216HW,2013-09-14 20:01:00,
2013-09-14 16:06:00,56.3,49.1,29.93,West,270,0.4,4.7,77,0.00,,,0.38,WUHU216HW,2013-09-14 20:06:00,
2013-09-14 16:11:00,56.5,49.7,29.93,North,0,1.1,4.7,78,0.00,,,0.38,WUHU216HW,2013-09-14 20:11:00,
2013-09-14 16:16:00,57.2,50.4,29.93,NW,315,0.4,2.0,78,0.00,,,0.38,WUHU216HW,2013-09-14 20:16:00,
2013-09-14 16:21:00,57.6,51.1,29.94,NNW,338,1.1,3.1,79,0.00,,,0.38,WUHU216HW,2013-09-14 20:21:00,
2013-09-14 16:26:00,57.8,50.2,29.94,NW,315,1.3,4.7,76,0.00,,,0.38,WUHU216HW,2013-09-14 20:26:00,
2013-09-14 16:31:00,57.2,49.7,29.94,North,0,0.0,4.9,76,0.00,,,0.38,WUHU216HW,2013-09-14 20:31:00,
2013-09-14 16:36:00,57.2,49.7,29.94,NNW,338,2.0,4.9,76,0.00,,,0.38,WUHU216HW,2013-09-14 20:36:00,
2013-09-14 16:42:00,57.2,49.7,29.94,West,270,2.0,4.5,76,0.00,,,0.38,WUHU216HW,2013-09-14 20:42:00,
2013-09-14 16:47:00,56.9,49.7,29.94,WNW,293,2.9,4.5,77,0.00,,,0.38,WUHU216HW,2013-09-14 20:47:00,
2013-09-14 16:52:00,56.5,49.0,29.95,NW,315,2.2,3.6,76,0.00,,,0.38,WUHU216HW,2013-09-14 20:52:00,
2013-09-14 16:57:00,56.0,49.1,29.95,NW,315,2.9,3.6,78,0.00,,,0.38,WUHU216HW,2013-09-14 20:57:00,
2013-09-14 17:02:00,55.8,49.3,29.95,NNW,338,2.0,4.3,79,0.00,,,0.38,WUHU216HW,2013-09-14 21:02:00,
2013-09-14 17:07:00,55.6,49.1,29.96,NW,315,1.8,4.9,79,0.00,,,0.38,WUHU216HW,2013-09-14 21:07:00,
2013-09-14 17:12:00,55.4,48.6,29.96,WNW,293,0.9,4.9,78,0.00,,,0.38,WUHU216HW,2013-09-14 21:12:00,
2013-09-14 17:17:00,55.3,48.8,29.96,North,0,1.6,3.4,79,0.00,,,0.38,WUHU216HW,2013-09-14 21:17:00,
2013-09-14 17:23:00,55.1,48.7,29.97,WNW,293,0.4,3.4,79,0.00,,,0.38,WUHU216HW,2013-09-14 21:23:00,
2013-09-14 17:30:00,55.1,48.7,29.97,NW,315,0.7,2.5,79,0.00,,,0.38,WUHU216HW,2013-09-14 21:30:00,
2013-09-14 17:35:00,54.9,48.5,29.97,North,0,0.4,1.8,79,0.00,,,0.38,WUHU216HW,2013-09-14 21:35:00,
2013-09-14 17:40:00,55.1,49.0,29.97,NNW,338,2.5,3.6,80,0.00,,,0.38,WUHU216HW,2013-09-14 21:40:00,
2013-09-14 17:45:00,55.1,49.0,29.97,WNW,293,0.0,3.6,80,0.00,,,0.38,WUHU216HW,2013-09-14 21:45:00,
2013-09-14 17:50:00,55.4,49.0,29.97,SSW,203,0.4,2.7,79,0.00,,,0.38,WUHU216HW,2013-09-14 21:50:00,
2013-09-14 17:59:00,55.8,50.1,29.97,South,180,0.0,1.8,81,0.00,,,0.38,WUHU216HW,2013-09-14 21:59:00,
2013-09-14 18:04:00,55.8,50.1,29.97,NE,45,1.1,1.3,81,0.00,,,0.38,WUHU216HW,2013-09-14 22:04:00,
2013-09-14 18:09:00,55.4,49.3,29.97,NE,45,2.5,2.7,80,0.00,,,0.38,WUHU216HW,2013-09-14 22:09:00,
2013-09-14 18:14:00,55.1,49.0,29.97,NNE,23,1.3,2.7,80,0.00,,,0.38,WUHU216HW,2013-09-14 22:14:00,
2013-09-14 18:19:00,55.1,49.3,29.97,NNE,23,0.7,2.2,81,0.00,,,0.38,WUHU216HW,2013-09-14 22:19:00,
2013-09-14 18:24:00,55.1,49.7,29.97,ENE,68,0.7,1.6,82,0.00,,,0.38,WUHU216HW,2013-09-14 22:24:00,
2013-09-14 18:30:00,54.7,49.3,29.97,NE,45,0.4,1.8,82,0.00,,,0.38,WUHU216HW,2013-09-14 22:30:00,
2013-09-14 18:35:00,54.5,49.1,29.97,ENE,68,1.3,1.8,82,0.00,,,0.38,WUHU216HW,2013-09-14 22:35:00,
2013-09-14 18:41:00,54.4,49.0,29.97,ENE,68,1.3,2.0,82,0.00,,,0.38,WUHU216HW,2013-09-14 22:41:00,
2013-09-14 18:46:00,54.4,49.3,29.98,North,0,0.2,2.0,83,0.00,,,0.38,WUHU216HW,2013-09-14 22:46:00,
2013-09-14 18:49:00,54.2,49.2,29.98,NNE,23,0.7,1.6,83,0.00,,,0.38,WUHU216HW,2013-09-14 22:49:00,
2013-09-14 18:54:00,54.0,49.0,29.98,NNE,23,0.0,1.1,83,0.00,,,0.38,WUHU216HW,2013-09-14 22:54:00,
2013-09-14 18:59:00,54.0,49.0,29.98,NNE,23,0.0,1.1,83,0.00,,,0.38,WUHU216HW,2013-09-14 22:59:00,
2013-09-14 19:04:00,54.0,49.2,29.99,East,90,0.4,1.1,84,0.00,,,0.38,WUHU216HW,2013-09-14 23:04:00,
2013-09-14 19:09:00,53.8,49.1,29.99,East,90,0.0,1.1,84,0.00,,,0.38,WUHU216HW,2013-09-14 23:09:00,
2013-09-14 19:14:00,54.0,49.2,29.99,NNW,338,0.4,0.9,84,0.00,,,0.38,WUHU216HW,2013-09-14 23:14:00,
2013-09-14 19:19:00,53.8,49.1,29.99,NNW,338,0.0,0.9,84,0.00,,,0.38,WUHU216HW,2013-09-14 23:19:00,
2013-09-14 19:24:00,53.6,49.2,29.99,NNE,23,1.3,1.3,85,0.00,,,0.38,WUHU216HW,2013-09-14 23:24:00,
2013-09-14 19:29:00,53.6,49.2,30.00,ENE,68,0.9,2.5,85,0.00,,,0.38,WUHU216HW,2013-09-14 23:29:00,
2013-09-14 19:34:00,53.5,49.1,30.00,NE,45,1.8,4.0,85,0.00,,,0.38,WUHU216HW,2013-09-14 23:34:00,
2013-09-14 19:39:00,53.5,49.1,30.00,North,0,1.1,4.0,85,0.00,,,0.38,WUHU216HW,2013-09-14 23:39:00,
2013-09-14 19:44:00,53.3,48.9,30.00,NNW,338,1.1,2.9,85,0.00,,,0.38,WUHU216HW,2013-09-14 23:44:00,
2013-09-14 19:49:00,53.1,48.7,30.00,NNW,338,0.0,1.3,85,0.00,,,0.38,WUHU216HW,2013-09-14 23:49:00,
2013-09-14 19:54:00,52.9,48.5,30.01,North,0,0.4,1.1,85,0.00,,,0.38,WUHU216HW,2013-09-14 23:54:00,
2013-09-14 19:59:00,52.9,48.8,30.01,NNE,23,0.9,1.1,86,0.00,,,0.38,WUHU216HW,2013-09-14 23:59:00,
2013-09-14 20:04:00,52.6,48.4,30.01,NNE,23,0.9,1.1,86,0.00,,,0.38,WUHU216HW,2013-09-15 00:04:00,
2013-09-14 20:09:00,52.6,48.4,30.01,East,90,0.2,0.9,86,0.00,,,0.38,WUHU216HW,2013-09-15 00:09:00,
2013-09-14 20:14:00,52.6,48.4,30.01,ESE,113,1.6,1.6,86,0.00,,,0.38,WUHU216HW,2013-09-15 00:14:00,
2013-09-14 20:19:00,52.6,48.8,30.01,NNE,23,0.7,1.6,87,0.00,,,0.38,WUHU216HW,2013-09-15 00:19:00,
2013-09-14 20:24:00,52.4,48.6,30.01,ENE,68,0.0,1.6,87,0.00,,,0.38,WUHU216HW,2013-09-15 00:24:00,
2013-09-14 20:29:00,52.4,48.6,30.01,SSE,158,2.0,2.0,87,0.00,,,0.38,WUHU216HW,2013-09-15 00:29:00,
2013-09-14 20:34:00,52.4,48.6,30.02,SSE,158,1.3,2.5,87,0.00,,,0.38,WUHU216HW,2013-09-15 00:34:00,
2013-09-14 20:39:00,52.6,48.8,30.02,SE,135,0.4,2.5,87,0.00,,,0.38,WUHU216HW,2013-09-15 00:39:00,
2013-09-14 20:44:00,52.6,49.1,30.02,West,270,1.6,1.6,88,0.00,,,0.38,WUHU216HW,2013-09-15 00:44:00,
2013-09-14 20:49:00,52.4,48.9,30.02,WNW,293,0.0,1.6,88,0.00,,,0.38,WUHU216HW,2013-09-15 00:49:00,
2013-09-14 20:54:00,52.4,48.9,30.02,WNW,293,0.0,1.6,88,0.00,,,0.38,WUHU216HW,2013-09-15 00:54:00,
2013-09-14 20:59:00,52.4,48.9,30.02,WNW,293,0.0,0.0,88,0.00,,,0.38,WUHU216HW,2013-09-15 00:59:00,
2013-09-14 21:04:00,52.4,48.9,30.02,SSE,158,1.1,1.8,88,0.00,,,0.38,WUHU216HW,2013-09-15 01:04:00,
2013-09-14 21:09:00,52.4,48.9,30.02,SE,135,1.3,1.8,88,0.00,,,0.38,WUHU216HW,2013-09-15 01:09:00,
2013-09-14 21:14:00,52.4,48.9,30.02,SE,135,0.4,1.6,88,0.00,,,0.38,WUHU216HW,2013-09-15 01:14:00,
2013-09-14 21:19:00,52.4,48.9,30.02,SE,135,0.0,1.3,88,0.00,,,0.38,WUHU216HW,2013-09-15 01:19:00,
2013-09-14 21:24:00,52.4,48.9,30.02,North,0,0.0,0.9,88,0.00,,,0.38,WUHU216HW,2013-09-15 01:24:00,
2013-09-14 21:29:00,52.4,48.9,30.02,NNE,23,0.0,0.9,88,0.00,,,0.38,WUHU216HW,2013-09-15 01:29:00,
2013-09-14 21:34:00,52.4,48.9,30.02,North,0,0.0,0.0,88,0.00,,,0.38,WUHU216HW,2013-09-15 01:34:00,
2013-09-14 21:39:00,52.4,48.9,30.02,ENE,68,0.0,0.0,88,0.00,,,0.38,WUHU216HW,2013-09-15 01:39:00,
2013-09-14 21:44:00,52.2,48.7,30.02,ESE,113,0.2,0.9,88,0.00,,,0.38,WUHU216HW,2013-09-15 01:44:00,
2013-09-14 21:49:00,52.2,48.7,30.02,North,0,0.0,0.9,88,0.00,,,0.38,WUHU216HW,2013-09-15 01:49:00,
2013-09-14 21:54:00,52.2,49.1,30.02,NNW,338,0.7,1.1,89,0.00,,,0.38,WUHU216HW,2013-09-15 01:54:00,
2013-09-14 21:59:00,52.0,48.9,30.02,NW,315,0.7,1.1,89,0.00,,,0.38,WUHU216HW,2013-09-15 01:59:00,
2013-09-14 22:04:00,51.8,48.7,30.03,West,270,0.9,1.1,89,0.00,,,0.38,WUHU216HW,2013-09-15 02:04:00,
2013-09-14 22:09:00,51.8,48.7,30.03,WSW,248,0.0,0.9,89,0.00,,,0.38,WUHU216HW,2013-09-15 02:09:00,
2013-09-14 22:14:00,52.0,48.9,30.03,West,270,0.0,0.9,89,0.00,,,0.38,WUHU216HW,2013-09-15 02:14:00,
2013-09-14 22:19:00,51.8,48.7,30.03,WSW,248,0.0,0.0,89,0.00,,,0.38,WUHU216HW,2013-09-15 02:19:00,
2013-09-14 22:24:00,51.8,48.7,30.03,SSE,158,0.9,0.9,89,0.00,,,0.38,WUHU216HW,2013-09-15 02:24:00,
2013-09-14 22:29:00,51.8,48.7,30.03,ESE,113,0.0,1.1,89,0.00,,,0.38,WUHU216HW,2013-09-15 02:29:00,
2013-09-14 22:34:00,51.8,48.7,30.03,East,90,1.1,1.3,89,0.00,,,0.38,WUHU216HW,2013-09-15 02:34:00,
2013-09-14 22:39:00,51.7,48.5,30.03,East,90,1.1,1.3,89,0.00,,,0.38,WUHU216HW,2013-09-15 02:39:00,
2013-09-14 22:44:00,51.5,48.3,30.03,ENE,68,0.4,1.3,89,0.00,,,0.38,WUHU216HW,2013-09-15 02:44:00,
2013-09-14 22:50:00,51.1,48.0,30.03,North,0,0.4,1.1,89,0.00,,,0.38,WUHU216HW,2013-09-15 02:50:00,
2013-09-14 22:55:00,50.8,47.6,30.04,West,270,0.4,0.9,89,0.00,,,0.38,WUHU216HW,2013-09-15 02:55:00,
2013-09-14 23:00:00,50.4,46.9,30.04,SSW,203,0.0,1.1,88,0.00,,,0.38,WUHU216HW,2013-09-15 03:00:00,
2013-09-14 23:05:00,50.2,46.7,30.04,SW,225,0.0,1.1,88,0.00,,,0.38,WUHU216HW,2013-09-15 03:05:00,
2013-09-14 23:10:00,50.0,46.5,30.04,NW,315,0.7,0.9,88,0.00,,,0.38,WUHU216HW,2013-09-15 03:10:00,
2013-09-14 23:15:00,49.9,46.4,30.04,WNW,293,0.0,1.3,88,0.00,,,0.38,WUHU216HW,2013-09-15 03:15:00,
2013-09-14 23:20:00,49.5,46.1,30.04,WNW,293,0.0,1.3,88,0.00,,,0.38,WUHU216HW,2013-09-15 03:20:00,
2013-09-14 23:25:00,49.3,45.9,30.04,WNW,293,0.0,0.0,88,0.00,,,0.38,WUHU216HW,2013-09-15 03:25:00,
2013-09-14 23:30:00,49.1,45.7,30.04,WNW,293,0.0,0.0,88,0.00,,,0.38,WUHU216HW,2013-09-15 03:30:00,
2013-09-14 23:35:00,49.0,45.5,30.04,SSE,158,0.9,0.9,88,0.00,,,0.38,WUHU216HW,2013-09-15 03:35:00,
2013-09-14 23:40:00,48.6,45.2,30.04,West,270,0.4,1.6,88,0.00,,,0.38,WUHU216HW,2013-09-15 03:40:00,
2013-09-14 23:45:00,48.4,45.4,30.04,WNW,293,0.0,1.6,89,0.00,,,0.38,WUHU216HW,2013-09-15 03:45:00,
2013-09-14 23:50:00,48.4,45.4,30.04,North,0,0.0,1.1,89,0.00,,,0.38,WUHU216HW,2013-09-15 03:50:00,
2013-09-14 23:55:00,48.4,45.4,30.04,NNW,338,0.0,0.0,89,0.00,,,0.38,WUHU216HW,2013-09-15 03:55:00,